{"data":{"norad_id":64810,"epoch":"2026-09-20T14:07:36.924384Z","epoch_age_seconds":119989,"freshness":"FRESH","line1":"1 64810U 25150W   26263.58862181  .00006872  00000+0  58315-3 0  9997","line2":"2 64810  70.0034   2.9338 0002926 261.5896  98.4932 14.98328374 65719","mean_motion":14.98328374,"eccentricity":0.0002926,"inclination_deg":70.0034,"raan_deg":2.9338,"arg_perigee_deg":261.5896,"mean_anomaly_deg":98.4932,"bstar":0.00058315,"rev_number":6571,"period_min":96.10710342191,"perigee_km":570.02729130867,"apogee_km":574.094547131,"semimajor_km":6950.1979192198,"source":"CELESTRAK","updated_at":"2026-09-21T09:00:35.446770Z"}}